User: anonymous   Login
Location: Arcizac
(43.0933°N, 0.0112°E)
Time: 07:28:04
(UTC+00:00)
Language:

Meteor 2-13 Rocket - Orbit

View from above orbital plane
View from above orbital plane
View from above satellite
View from above satellite

Ground track
Ground track

The orbit data is extracted from the following two-line orbital elements,

1 16409U 85119B   20050.09924017  .00000023  00000-0  67081-5 0  9995
2 16409  82.5375 301.7905 0015300 159.0095 201.1697 13.84810494726031
Epoch (UTC): 19 February 2020 02:22:54
Eccentricity: 0.0015300
inclination: 82.5375°
perigee height: 935 km
apogee height: 958 km
right ascension of ascending node: 301.7905°
argument of perigee: 159.0095°
revolutions per day: 13.84810494
mean anomaly at epoch: 201.1697°
orbit number at epoch: 72603

The dashed part of the orbit path shows where the satellite is in the earth's shadow,  

DLR